Flag for Brazil Weather past 2 weeks in Manaus, Amazonas, Brazil

Now
84 °F

Clear.


Feels Like: 90 °F
Forecast: N/A
Wind: 5 mph from East

Location: Manaus Aeroporto

Current Time: Aug 3, 2015 at 7:54:49 PM

Latest Report: Aug 3, 2015 at 7:00 PM


Visibility: 10 mi

Pressure: 29.83 "Hg

Humidity: 66%

Dew point: 72 °F

Location of ManausLocation

Historic Weather in Manaus — Graph

°F

Manaus temperature yesterday

Maximum temperature yesterday: 91 °F (at 2:00 PM)
Minimum temperature yesterday: 77 °F (at 6:00 AM)
Average temperature yesterday: 84 °F

Past Weeks' High & Low Weather Summary

 TemperatureHumidityPressure
High91 °F (Aug 2, 2:00 PM)94% (Jul 23, 4:00 AM)30.01 "Hg (Jul 23, 4:00 AM)
Low72 °F (Jul 23, 4:00 AM)52% (Jul 29, 3:00 PM)29.80 "Hg (Jul 27, 3:00 PM)
Average82 °F75%29.90 "Hg
* Reported Jul 19 7:00 PM — Aug 3 7:00 PM, Manaus, Weather by CustomWeather, © 2015

Note: Actual official high and low records may vary slightly from our data, if they occured in-between our weather recording intervals... More about our weather records

Advertising

Manaus weather history for previous 24 hours

 ConditionsComfort  
Time TempWeatherWind HumidityBarometerVisibility
7:00 PM
Mon, Aug 3
84 °FClear.5 mph66%29.83 "Hg10 mi
6:00 PM84 °FScattered clouds.5 mph66%29.83 "HgN/A
5:00 PM86 °FScattered clouds.6 mph62%29.83 "HgN/A
4:00 PM84 °FScattered showers. Scattered clouds.10 mph70%29.83 "HgN/A
3:00 PM90 °FScattered clouds.7 mph55%29.83 "HgN/A
2:00 PM91 °FScattered clouds.6 mph56%29.86 "HgN/A
1:00 PM90 °FScattered clouds.12 mph59%29.89 "HgN/A
12:00 PM88 °FScattered clouds.12 mph59%29.92 "HgN/A
11:00 AM88 °FScattered clouds.10 mph62%29.92 "HgN/A
10:00 AM86 °FPassing clouds.9 mph66%29.95 "HgN/A
9:00 AM86 °FSunny.9 mph66%29.92 "Hg10 mi
8:00 AM82 °FSunny.6 mph79%29.92 "Hg10 mi
7:00 AM81 °FSunny.5 mph89%29.89 "Hg10 mi
6:00 AM79 °FClear.5 mph89%29.86 "Hg10 mi
5:00 AM77 °FClear.No wind94%29.86 "Hg10 mi
4:00 AM79 °FClear.No wind89%29.86 "Hg10 mi
3:00 AM79 °FClear.No wind94%29.86 "Hg10 mi
2:00 AM81 °FClear.No wind89%29.86 "Hg10 mi
1:00 AM81 °FClear.No wind79%29.86 "Hg10 mi
12:00 AM81 °FClear.No wind84%29.89 "Hg10 mi
11:00 PM
Sun, Aug 2
81 °FClear.No wind84%29.89 "Hg10 mi
10:00 PM82 °FClear.No wind74%29.89 "Hg10 mi
9:00 PM82 °FClear.5 mph74%29.86 "Hg10 mi
8:00 PM82 °FPassing clouds.3 mph74%29.83 "HgN/A
7:00 PM84 °FPassing clouds.2 mph74%29.83 "HgN/A
Weather by CustomWeather, © 2015

See weather overviewHow to use our weather pages